Temp
71 70 70 70 71 72 76 80 80 81 81 81 81 81 81 81 80 79 79 78 78 76 76 77 77 77 77 77 77 77 77 76 76 77 77 78 78 78 78 78 78 78 78 77 78 77 78 79 79 79 79 79 79 78 78 78 78 80 78 78 78 78 77
70 69 69 70 70 70 72 72 76 81 80 81 82 81 82 81 79 79 78 78 78 77 76 77 77 77 78 77 77 77 77 76 77 79 78 78 79 78 79 78 79 78 78 78 79 78 79 79 79 79 79 79 79 79 79 78 78 78 78 77 78 77 77
68 68 69 69 70 70 72 73 73 75 78 81 82 82 82 80 80 79 79 79 78 78 77 78 78 78 78 77 77 77 77 77 77 78 77 78 78 80 80 79 79 79 79 80 79 80 80 80 79 79 80 79 80 79 79 78 78 79 78 77 78 79 77
67 68 70 70 71 71 73 73 73 74 76 77 78 81 82 80 81 81 80 80 79 78 77 78 78 78 78 77 77 77 77 77 78 79 79 79 79 79 79 78 79 80 79 80 81 82 84 81 80 79 82 79 79 79 79 79 79 78 78 77 77 77 77
68 69 69 70 71 71 73 72 73 72 74 76 76 76 77 80 82 82 81 81 81 79 79 79 80 80 79 79 79 79 78 78 77 78 79 79 79 79 79 80 79 80 80 81 81 81 81 80 80 80 80 79 79 79 79 79 79 78 78 78 78 77 77
67 67 68 69 70 71 71 72 73 73 73 74 75 76 76 78 81 81 81 81 81 81 81 80 80 79 79 79 80 80 78 78 78 78 79 79 79 79 79 80 80 80 81 81 81 81 81 81 81 81 81 80 80 80 80 79 79 79 78 78 78 78 78
67 68 68 68 69 69 71 72 72 72 73 74 74 75 76 77 76 77 78 79 79 77 77 77 77 79 79 80 79 78 78 78 78 78 79 79 79 79 79 80 80 80 81 80 81 82 81 81 81 81 81 81 80 81 80 79 79 79 78 78 77 77 78
67 67 68 69 69 69 70 71 72 72 73 74 73 74 74 75 76 75 76 76 77 77 76 75 74 74 76 79 80 79 79 79 79 79 79 80 79 79 79 79 79 81 80 81 81 81 82 81 82 81 81 81 80 80 80 79 79 80 79 78 77 77 79
67 67 68 69 68 69 69 70 71 72 72 72 72 73 74 74 74 74 74 74 74 75 74 75 74 75 74 74 76 77 78 80 80 79 79 81 81 80 82 81 80 81 81 81 82 81 81 82 82 81 81 81 80 79 79 79 79 79 79 78 78 77 78
67 67 68 68 69 68 69 70 71 71 71 72 72 72 72 73 73 73 73 73 73 74 74 75 75 75 75 74 74 75 76 77 79 81 81 81 82 82 82 83 82 81 81 82 83 82 81 81 82 81 80 80 79 78 79 79 79 79 79 79 79 78 78
68 68 68 68 68 68 67 68 68 69 70 71 71 72 72 71 72 72 72 73 73 73 74 75 75 74 74 74 74 74 73 76 79 80 81 82 82 83 83 84 84 82 82 82 82 83 82 80 81 80 79 81 80 79 78 79 79 79 79 80 80 79 79
66 67 67 67 67 67 67 67 68 69 69 70 70 71 72 72 73 73 73 74 74 73 74 74 75 74 74 74 73 72 73 73 74 75 77 80 83 84 84 84 84 84 83 83 83 83 83 82 81 81 80 80 81 80 79 78 79 79 79 80 80 79 79
68 68 67 67 65 65 68 67 67 68 69 69 70 70 70 71 72 73 72 73 73 74 74 73 74 74 74 74 74 73 73 73 73 73 74 74 75 79 81 81 83 85 85 85 85 83 83 83 82 81 81 80 81 81 80 79 79 78 79 79 80 79 79
69 69 68 67 66 65 66 66 68 69 68 69 69 70 70 71 71 72 72 72 73 73 74 74 73 73 73 73 73 72 73 73 73 73 73 74 75 75 76 77 77 79 79 82 84 85 84 84 83 83 82 81 81 81 81 79 78 78 78 79 79 79 79
67 68 68 68 67 66 67 67 67 67 68 69 70 70 70 70 70 71 71 72 72 73 73 74 73 73 73 72 71 72 72 73 73 73 73 74 74 74 75 76 76 76 77 78 81 85 86 85 85 83 82 82 81 81 81 80 80 79 79 78 78 79 79
67 67 67 67 68 68 68 68 69 69 69 69 69 69 70 70 70 70 70 71 72 72 73 73 73 73 73 73 73 73 73 73 73 73 74 74 73 73 73 74 77 78 77 77 78 78 79 80 82 84 83 82 81 81 82 81 82 81 77 78 80 79 81
65 66 67 67 67 68 68 68 69 69 68 67 68 70 70 69 70 71 71 71 71 70 72 72 71 72 72 72 73 74 74 74 73 73 73 73 73 73 73 74 76 76 75 75 74 74 76 78 80 81 83 83 83 82 82 83 84 77 71 72 75 81 79
63 64 65 66 67 67 68 68 68 69 69 68 70 71 70 69 70 70 70 70 70 70 71 71 71 70 71 72 72 72 72 72 73 73 73 73 74 74 74 75 75 74 74 74 75 74 76 78 78 77 79 83 83 83 83 83 80 72 69 70 70 76 81
63 64 64 64 65 65 66 67 68 68 69 71 71 71 72 72 71 70 71 70 71 71 71 71 70 70 70 71 71 71 71 71 72 72 72 73 73 73 74 74 74 74 75 74 74 75 74 75 76 77 76 79 79 82 83 83 76 70 69 69 69 69 77
63 63 63 63 63 64 63 65 65 68 69 68 70 73 74 74 72 72 72 73 72 71 70 70 70 70 70 70 70 70 71 71 71 71 72 73 73 73 73 73 72 73 74 74 73 73 74 76 76 75 74 76 76 78 81 82 78 69 67 67 67 68 70
62 62 61 61 61 63 62 62 64 65 66 68 70 71 72 71 72 71 71 72 71 71 70 70 69 69 69 69 70 70 70 70 70 71 71 72 73 72 72 72 71 72 73 73 73 73 73 74 75 75 75 77 77 76 79 84 75 68 65 65 65 66 68
63 64 62 61 61 61 62 63 64 65 65 68 68 69 69 69 70 70 69 69 70 70 70 69 68 69 69 69 70 70 70 71 71 70 71 71 71 72 72 71 71 72 73 73 73 74 74 74 75 76 76 76 76 77 78 82 72 67 64 63 63 65 72
65 65 64 63 64 63 63 64 64 65 66 65 66 66 66 68 68 68 68 68 68 67 67 67 67 68 68 69 69 70 70 70 71 71 71 70 70 70 71 71 71 72 73 72 73 73 73 74 75 74 75 76 76 76 76 79 68 63 61 61 62 64 72
66 65 65 65 65 65 64 64 65 66 65 64 64 64 65 66 66 65 65 66 67 66 66 66 66 67 67 67 68 69 70 70 71 71 71 70 70 70 70 71 71 72 73 72 72 72 73 74 74 75 75 75 76 78 78 79 69 61 62 59 59 66 73
65 66 65 65 64 63 64 64 65 65 64 64 64 64 64 64 64 64 64 64 64 65 65 65 65 66 66 66 66 68 69 70 70 71 71 70 71 71 71 71 71 72 72 72 72 72 73 73 73 74 75 77 78 79 78 75 73 62 61 61 57 62 70
63 64 64 65 64 63 63 63 64 64 63 62 62 65 64 63 63 65 64 63 63 63 63 64 65 65 66 66 66 67 68 68 69 69 70 70 70 71 71 71 71 71 72 72 72 72 72 73 73 73 75 77 77 79 78 75 75 75 62 58 55 59 71
63 64 63 64 64 66 62 62 61 61 62 61 62 64 64 63 63 61 63 62 61 62 63 64 64 65 65 66 66 67 67 68 68 69 71 72 70 71 71 69 69 69 70 71 71 71 72 72 73 74 74 75 76 77 76 76 75 75 65 60 57 55 64
63 63 64 65 66 63 61 62 61 61 62 62 63 63 62 61 61 61 60 60 61 61 63 64 64 64 64 65 66 67 67 66 69 70 72 71 71 69 69 69 69 70 70 70 70 71 71 71 72 72 73 74 75 76 74 76 76 75 69 62 58 55 55
59 59 59 60 61 63 63 59 59 60 59 61 61 60 60 60 60 60 59 59 60 62 63 64 64 63 63 64 65 66 67 66 68 69 69 70 70 69 69 69 69 69 70 70 69 69 70 70 70 70 69 71 73 74 74 73 74 71 72 67 61 56 53
59 59 60 61 62 61 61 58 58 58 59 59 59 59 58 59 58 60 59 58 60 61 63 63 62 63 63 64 64 64 65 67 67 67 68 69 69 68 68 68 69 68 69 68 68 67 67 68 68 68 68 68 69 70 70 72 73 72 71 70 64 58 53
58 58 58 59 60 61 59 58 57 58 59 58 58 59 59 59 58 60 58 58 61 61 61 62 62 62 62 62 62 63 64 65 65 65 66 66 66 67 68 68 68 68 67 67 66 66 66 66 68 67 67 67 68 67 68 69 70 71 73 70 66 61 58
57 57 58 58 57 59 57 57 56 57 57 58 58 58 59 58 58 57 57 59 60 61 60 61 61 62 62 62 62 62 63 64 65 65 65 65 65 66 66 67 67 68 67 66 66 64 65 65 66 66 65 65 67 67 68 69 69 70 72 73 72 68 61
56 56 56 56 57 58 56 55 56 57 57 56 56 57 58 58 58 58 58 59 60 61 60 60 60 61 61 60 61 62 62 62 63 65 65 64 64 65 66 65 65 66 66 66 64 63 65 65 65 64 63 64 64 65 66 68 69 70 71 71 69 68 67
54 55 55 56 56 56 54 53 54 55 55 55 54 56 57 57 57 58 58 59 60 60 59 59 60 60 59 60 61 61 62 62 68 68 64 63 64 63 64 64 65 64 63 64 64 63 64 63 63 63 63 62 63 64 65 66 67 69 69 68 66 64 64
55 55 54 55 55 56 54 54 55 54 55 54 54 55 55 55 56 57 57 58 58 58 58 58 59 59 58 59 59 60 63 63 63 62 63 63 62 62 62 63 64 64 63 65 65 65 65 64 64 64 63 63 63 62 63 65 65 67 60 58 53 55 59
54 54 54 55 56 54 55 56 54 54 54 53 53 54 55 54 55 56 58 58 58 58 57 57 57 57 57 59 59 60 62 62 61 61 62 63 62 64 62 67 60 59 61 63 66 61 54 53 61 63 62 61 62 63 62 63 66 59 50 46 45 45 45
54 54 54 54 53 53 54 54 56 54 54 53 54 54 54 54 54 55 56 57 57 57 56 55 56 57 56 58 58 60 63 61 60 60 60 61 61 62 60 61 61 53 53 55 57 53 48 46 47 49 51 55 58 61 59 57 53 47 44 43 44 43 43
56 55 55 53 54 54 54 53 53 53 53 53 54 52 53 53 54 53 56 57 56 56 55 55 55 54 55 56 58 60 61 60 61 61 61 61 61 61 59 59 58 60 55 51 52 51 48 47 48 49 50 51 52 57 59 57 52 46 44 44 43 44 43
MSLP
1016.38 1016.70 1016.94 1016.98 1017.14 1017.14 1016.02 1015.38 1015.34 1015.58 1015.70 1015.94 1016.02 1016.18 1016.42 1016.70 1016.94 1017.18 1017.62 1017.90 1018.18 1018.54 1018.54 1018.58 1018.70 1018.82 1019.02 1019.06 1019.10 1019.18 1019.30 1019.50 1019.62 1019.78 1019.90 1019.94 1019.98 1020.14 1020.38 1020.42 1020.54 1020.62 1020.66 1020.86 1020.86 1020.86 1020.74 1020.66 1020.74 1020.82 1020.90 1021.02 1021.10 1021.14 1021.18 1021.18 1021.30 1021.26 1021.30 1021.34 1021.46 1021.62 1021.70
1016.66 1016.98 1017.02 1016.70 1017.02 1017.46 1017.18 1016.42 1015.46 1015.30 1015.66 1015.74 1015.82 1015.98 1016.14 1016.46 1016.74 1017.10 1017.38 1017.54 1017.78 1018.10 1018.30 1018.42 1018.58 1018.74 1018.82 1018.94 1019.02 1019.14 1019.30 1019.46 1019.50 1019.58 1019.70 1019.78 1019.78 1019.90 1019.94 1020.18 1020.30 1020.46 1020.46 1020.46 1020.50 1020.50 1020.54 1020.54 1020.58 1020.74 1020.90 1020.90 1020.98 1020.98 1021.06 1021.10 1021.14 1021.26 1021.34 1021.42 1021.58 1021.70 1021.74
1017.22 1017.26 1017.22 1017.14 1016.82 1016.94 1017.18 1016.74 1016.10 1015.54 1015.50 1015.66 1015.70 1015.90 1016.06 1016.26 1016.38 1016.66 1017.02 1017.38 1017.70 1017.90 1018.06 1018.26 1018.38 1018.54 1018.62 1018.78 1018.98 1019.10 1019.14 1019.26 1019.42 1019.54 1019.74 1019.86 1019.86 1019.82 1019.78 1019.90 1020.06 1020.22 1020.18 1020.18 1020.26 1020.38 1020.30 1020.46 1020.42 1020.54 1020.70 1020.86 1020.86 1020.90 1020.90 1020.98 1021.02 1021.14 1021.22 1021.34 1021.46 1021.62 1021.74
1017.38 1017.18 1017.18 1017.10 1016.86 1016.46 1016.66 1016.70 1016.66 1016.18 1015.86 1015.54 1015.62 1015.66 1015.74 1015.82 1015.82 1016.02 1016.34 1016.70 1017.26 1017.66 1018.02 1018.06 1018.22 1018.38 1018.50 1018.70 1018.86 1018.98 1019.06 1019.06 1019.18 1019.34 1019.42 1019.54 1019.70 1019.70 1019.86 1019.94 1019.94 1020.02 1020.22 1020.22 1020.06 1020.06 1020.10 1020.22 1020.38 1020.46 1020.50 1020.70 1020.78 1020.78 1020.86 1020.90 1020.94 1021.06 1021.14 1021.26 1021.42 1021.46 1021.58
1017.26 1017.02 1016.90 1016.94 1016.94 1016.74 1016.74 1017.34 1017.10 1016.54 1016.14 1015.74 1015.50 1015.42 1015.50 1015.62 1015.58 1015.78 1016.02 1016.14 1016.46 1016.98 1017.18 1017.46 1017.70 1017.98 1018.22 1018.34 1018.58 1018.66 1018.78 1018.90 1019.02 1019.10 1019.14 1019.26 1019.34 1019.54 1019.78 1019.94 1019.94 1019.98 1019.94 1019.90 1019.86 1019.94 1020.02 1020.18 1020.30 1020.42 1020.50 1020.54 1020.66 1020.74 1020.86 1020.82 1020.90 1020.94 1021.10 1021.18 1021.42 1021.42 1021.54
1017.18 1017.34 1017.26 1017.18 1017.10 1017.14 1017.62 1017.54 1017.06 1016.74 1016.46 1016.18 1015.98 1015.78 1015.62 1015.74 1015.86 1016.06 1016.02 1016.18 1016.38 1016.46 1016.78 1017.18 1017.50 1017.74 1018.14 1018.22 1018.42 1018.58 1018.62 1018.70 1018.74 1018.82 1018.94 1019.06 1019.30 1019.54 1019.66 1019.70 1019.78 1019.86 1019.94 1019.86 1019.74 1019.82 1019.82 1019.98 1020.10 1020.22 1020.42 1020.46 1020.50 1020.62 1020.70 1020.82 1020.82 1020.90 1021.06 1021.18 1021.34 1021.42 1021.54
1017.26 1017.22 1017.38 1017.50 1017.38 1017.22 1017.26 1017.30 1017.42 1017.26 1017.02 1016.58 1016.02 1015.82 1015.78 1015.74 1016.06 1016.18 1016.14 1016.38 1016.50 1016.98 1017.26 1017.58 1017.66 1017.78 1017.94 1018.06 1018.30 1018.46 1018.70 1018.74 1018.74 1018.82 1018.78 1018.94 1019.02 1019.30 1019.42 1019.46 1019.50 1019.62 1019.62 1019.62 1019.78 1019.70 1019.90 1019.94 1019.94 1019.98 1020.06 1020.26 1020.38 1020.50 1020.62 1020.74 1020.82 1020.78 1020.98 1021.18 1021.34 1021.34 1021.38
1017.58 1017.74 1017.66 1017.62 1017.62 1017.34 1017.26 1017.22 1017.18 1017.06 1016.90 1016.66 1016.42 1016.06 1016.14 1016.14 1016.06 1016.34 1016.54 1016.54 1016.50 1016.62 1016.82 1017.06 1017.34 1017.58 1017.82 1017.90 1017.98 1018.22 1018.38 1018.54 1018.54 1018.62 1018.70 1018.86 1018.94 1019.14 1019.30 1019.34 1019.42 1019.38 1019.46 1019.70 1019.58 1019.58 1019.74 1019.82 1019.78 1019.78 1019.86 1020.06 1020.18 1020.26 1020.38 1020.50 1020.62 1020.66 1020.82 1021.10 1021.30 1021.34 1021.26
1017.70 1017.62 1017.70 1017.82 1017.82 1017.58 1017.38 1017.22 1017.42 1017.46 1017.06 1016.94 1016.74 1016.46 1016.26 1016.34 1016.50 1016.70 1016.98 1017.18 1017.14 1017.02 1017.22 1017.26 1017.46 1017.42 1017.50 1017.70 1017.98 1018.10 1018.10 1018.18 1018.38 1018.54 1018.70 1018.82 1018.90 1019.06 1019.06 1019.18 1019.26 1019.18 1019.42 1019.46 1019.46 1019.42 1019.54 1019.62 1019.66 1019.74 1019.78 1019.90 1019.98 1020.10 1020.22 1020.34 1020.46 1020.50 1020.66 1020.90 1021.06 1021.22 1021.26
1017.90 1017.82 1017.70 1017.62 1017.78 1017.82 1017.74 1017.58 1017.46 1017.46 1017.54 1017.30 1017.02 1016.82 1016.82 1016.86 1016.90 1017.22 1017.54 1017.98 1018.22 1017.90 1017.62 1017.58 1017.54 1017.58 1017.70 1017.74 1017.94 1018.06 1018.06 1018.10 1018.14 1018.34 1018.58 1018.82 1018.78 1018.94 1018.90 1018.90 1019.02 1019.02 1019.18 1019.18 1019.14 1019.34 1019.34 1019.34 1019.46 1019.62 1019.78 1019.90 1019.98 1020.02 1020.06 1020.18 1020.26 1020.38 1020.46 1020.66 1020.82 1021.02 1021.10
1018.30 1018.06 1018.02 1018.06 1018.10 1018.26 1018.34 1018.42 1018.34 1018.02 1017.70 1017.58 1017.34 1017.10 1017.02 1016.98 1017.14 1017.26 1017.30 1017.30 1017.90 1018.42 1018.46 1017.86 1017.62 1017.70 1017.82 1017.78 1017.94 1017.98 1018.14 1018.22 1018.10 1018.30 1018.46 1018.62 1018.70 1018.78 1018.78 1018.78 1018.82 1018.86 1018.98 1019.02 1019.06 1019.02 1019.14 1019.26 1019.22 1019.46 1019.66 1019.82 1019.86 1019.94 1019.98 1019.98 1020.06 1020.26 1020.34 1020.38 1020.46 1020.66 1020.82
1018.94 1018.46 1018.50 1018.42 1018.26 1018.26 1018.50 1018.74 1018.62 1018.22 1017.86 1017.74 1017.62 1017.58 1017.46 1017.42 1017.30 1017.42 1017.58 1017.66 1017.86 1018.34 1018.58 1018.38 1017.86 1017.62 1017.70 1017.90 1018.14 1018.26 1018.34 1018.46 1018.34 1018.34 1018.62 1018.78 1018.62 1018.54 1018.66 1018.66 1018.74 1018.78 1018.74 1018.74 1018.90 1018.90 1018.94 1019.14 1019.22 1019.26 1019.46 1019.46 1019.54 1019.58 1019.66 1019.70 1019.82 1019.94 1020.06 1020.18 1020.26 1020.42 1020.50
1018.78 1018.82 1018.82 1018.82 1018.74 1018.66 1018.62 1018.86 1019.02 1018.58 1017.98 1017.82 1017.82 1017.86 1017.86 1017.66 1017.46 1017.50 1017.70 1017.94 1018.14 1018.14 1018.50 1018.78 1018.54 1017.94 1017.74 1017.82 1017.94 1018.14 1018.34 1018.42 1018.58 1018.34 1018.38 1018.62 1018.98 1018.86 1018.42 1018.50 1018.58 1018.58 1018.66 1018.50 1018.58 1018.78 1018.90 1018.94 1019.10 1019.06 1019.14 1019.22 1019.26 1019.38 1019.42 1019.50 1019.54 1019.70 1019.78 1019.86 1019.98 1020.14 1020.34
1018.70 1018.82 1019.02 1019.06 1019.10 1019.10 1019.22 1019.02 1018.70 1018.54 1018.30 1018.10 1018.06 1017.98 1017.90 1017.78 1017.74 1017.82 1017.86 1018.02 1018.02 1018.06 1018.18 1018.50 1018.98 1018.98 1018.66 1018.26 1018.18 1018.22 1018.26 1018.22 1018.26 1018.34 1018.14 1018.22 1018.30 1018.54 1018.90 1018.58 1018.38 1018.46 1018.38 1018.34 1018.54 1018.50 1018.50 1018.70 1018.86 1018.82 1018.90 1018.98 1019.06 1018.98 1019.02 1019.22 1019.34 1019.38 1019.42 1019.50 1019.62 1019.82 1019.98
1019.26 1019.18 1019.14 1019.26 1019.26 1019.22 1019.26 1019.22 1019.10 1018.94 1018.70 1018.54 1018.38 1018.30 1018.22 1018.26 1018.34 1018.30 1018.22 1018.10 1018.10 1018.10 1018.18 1018.06 1018.22 1018.54 1018.74 1018.94 1018.94 1018.58 1018.34 1018.26 1018.26 1018.22 1018.42 1018.22 1017.94 1018.14 1018.62 1019.10 1018.94 1018.54 1018.38 1018.22 1018.22 1018.18 1018.14 1018.06 1018.14 1018.50 1018.70 1018.66 1018.74 1018.78 1018.78 1018.98 1019.02 1018.98 1019.06 1019.22 1019.30 1019.34 1019.58
1019.58 1019.66 1019.66 1019.58 1019.42 1019.34 1019.30 1019.18 1019.02 1018.98 1018.90 1018.82 1018.74 1018.70 1018.62 1018.58 1018.62 1018.74 1018.74 1018.66 1018.46 1018.54 1018.46 1018.42 1018.66 1018.70 1018.74 1018.70 1018.58 1018.42 1018.38 1018.42 1018.46 1018.38 1018.26 1018.26 1018.30 1018.22 1018.42 1018.94 1019.18 1018.86 1018.58 1018.38 1018.14 1017.94 1017.90 1018.02 1018.06 1018.10 1018.26 1018.42 1018.46 1018.46 1018.54 1018.62 1018.50 1018.42 1018.42 1018.46 1018.66 1018.90 1019.06
1019.82 1019.98 1019.90 1019.78 1019.62 1019.50 1019.42 1019.30 1019.14 1019.18 1019.62 1019.54 1019.18 1019.02 1018.98 1019.02 1018.94 1018.86 1018.90 1019.02 1019.02 1019.02 1018.86 1018.86 1019.02 1018.98 1018.90 1018.94 1018.66 1018.42 1018.34 1018.38 1018.38 1018.30 1018.26 1018.10 1017.98 1017.86 1017.94 1018.46 1018.86 1018.82 1018.58 1018.62 1018.54 1018.34 1018.06 1017.86 1018.02 1018.06 1018.06 1018.10 1018.10 1018.26 1018.22 1018.14 1018.02 1017.98 1018.10 1018.18 1018.14 1018.30 1018.62
1020.22 1020.18 1020.18 1020.14 1019.94 1019.82 1019.78 1019.66 1019.58 1019.50 1019.78 1019.82 1019.58 1019.42 1019.54 1019.70 1019.66 1019.62 1019.74 1019.70 1019.62 1019.30 1019.06 1019.10 1019.26 1019.34 1019.22 1019.02 1018.94 1018.86 1018.74 1018.58 1018.38 1018.26 1018.14 1018.14 1018.22 1018.18 1018.10 1018.34 1018.78 1018.94 1018.62 1018.42 1018.38 1018.26 1018.10 1017.94 1017.78 1017.66 1017.66 1017.82 1017.98 1018.06 1017.94 1017.78 1017.54 1017.66 1017.82 1017.90 1017.98 1017.98 1018.18
1020.26 1020.26 1020.34 1020.30 1020.26 1020.22 1020.14 1020.06 1019.90 1019.78 1019.74 1019.62 1019.50 1019.50 1019.50 1019.58 1019.82 1020.02 1019.90 1019.94 1019.66 1019.18 1019.14 1019.26 1019.50 1019.70 1019.66 1019.46 1019.30 1019.22 1019.02 1018.82 1018.66 1018.50 1018.42 1018.38 1018.34 1018.34 1018.34 1018.42 1018.46 1018.46 1018.42 1018.38 1018.18 1018.06 1018.06 1017.94 1017.78 1017.62 1017.46 1017.46 1017.62 1017.82 1017.78 1017.70 1017.34 1017.38 1017.42 1017.58 1017.70 1017.86 1017.94
1020.22 1020.26 1020.26 1020.26 1020.30 1020.34 1020.26 1020.14 1020.06 1019.90 1019.78 1019.70 1019.58 1019.46 1019.42 1019.42 1019.70 1019.82 1019.74 1019.78 1019.74 1019.74 1019.74 1019.78 1019.70 1019.66 1019.82 1019.66 1019.38 1019.18 1019.02 1018.90 1018.82 1018.78 1018.66 1018.50 1018.38 1018.34 1018.46 1018.46 1018.42 1018.34 1018.26 1018.30 1018.34 1018.30 1018.14 1017.90 1017.94 1017.78 1017.66 1017.42 1017.38 1017.38 1017.34 1017.34 1017.18 1017.26 1017.26 1017.26 1017.38 1017.58 1017.94
1020.34 1020.30 1020.42 1020.46 1020.50 1020.42 1020.42 1020.38 1020.30 1020.26 1020.18 1020.06 1019.86 1019.70 1019.58 1019.70 1019.74 1019.86 1019.94 1019.90 1019.98 1019.86 1019.90 1019.90 1019.86 1019.78 1019.70 1019.62 1019.34 1019.18 1019.14 1019.02 1018.90 1018.90 1018.90 1018.82 1018.50 1018.42 1018.50 1018.54 1018.46 1018.34 1018.22 1018.26 1018.34 1018.34 1018.30 1018.14 1017.98 1017.78 1017.78 1017.78 1017.58 1017.38 1017.14 1016.90 1016.70 1016.90 1017.10 1017.22 1017.30 1017.42 1017.74
1020.30 1020.26 1020.46 1020.54 1020.54 1020.58 1020.58 1020.62 1020.66 1020.66 1020.62 1020.30 1020.14 1020.10 1019.94 1019.98 1019.82 1019.94 1020.14 1019.98 1020.02 1020.02 1019.94 1019.94 1019.94 1019.90 1019.70 1019.62 1019.46 1019.38 1019.22 1019.10 1019.06 1018.90 1018.98 1019.26 1019.02 1018.66 1018.46 1018.46 1018.46 1018.42 1018.22 1018.14 1018.10 1018.02 1017.94 1017.86 1017.74 1017.74 1017.70 1017.54 1017.50 1017.50 1017.34 1016.70 1016.38 1016.46 1016.70 1016.98 1017.26 1017.38 1017.74
1020.02 1020.14 1020.14 1020.34 1020.46 1020.78 1020.74 1020.74 1020.82 1020.74 1020.66 1020.70 1020.66 1020.58 1020.50 1020.22 1020.10 1020.14 1020.26 1020.30 1020.30 1020.22 1020.22 1020.14 1020.14 1020.06 1019.94 1019.82 1019.66 1019.50 1019.34 1019.14 1019.10 1019.06 1019.02 1019.14 1019.46 1019.18 1018.66 1018.46 1018.42 1018.30 1018.06 1018.14 1018.06 1018.06 1018.02 1017.94 1017.78 1017.62 1017.58 1017.46 1017.30 1017.30 1017.14 1016.78 1016.58 1016.58 1016.74 1016.94 1017.06 1017.50 1017.62
1019.86 1020.02 1020.14 1020.34 1020.58 1020.78 1020.90 1020.90 1020.90 1020.86 1020.90 1021.06 1021.06 1021.02 1020.82 1020.62 1020.50 1020.54 1020.62 1020.70 1020.66 1020.66 1020.62 1020.46 1020.34 1020.18 1020.10 1020.02 1019.82 1019.66 1019.50 1019.42 1019.34 1019.34 1019.26 1019.22 1019.34 1019.34 1018.90 1018.42 1018.18 1018.18 1017.98 1018.10 1018.10 1018.06 1017.94 1017.78 1017.74 1017.54 1017.38 1017.34 1017.26 1016.98 1016.94 1016.78 1016.78 1016.78 1016.62 1016.66 1016.78 1016.98 1017.14
1019.98 1020.14 1020.26 1020.38 1020.66 1021.06 1021.14 1021.14 1021.14 1021.18 1021.14 1021.18 1021.34 1021.22 1021.06 1020.94 1020.82 1020.86 1021.02 1021.06 1021.10 1021.10 1021.14 1021.10 1020.82 1020.46 1020.26 1020.06 1019.82 1019.62 1019.50 1019.38 1019.26 1019.22 1019.06 1019.02 1018.90 1018.74 1018.62 1018.38 1018.22 1017.98 1017.82 1017.82 1017.86 1017.86 1017.70 1017.62 1017.66 1017.50 1017.30 1017.10 1016.94 1016.66 1016.70 1016.78 1016.78 1016.62 1016.42 1016.30 1016.38 1016.70 1016.90
1020.22 1020.34 1020.50 1020.54 1020.74 1020.94 1021.14 1021.14 1021.10 1021.34 1021.50 1021.58 1021.58 1021.26 1021.14 1021.10 1021.10 1021.18 1021.26 1021.30 1021.18 1021.26 1021.34 1021.22 1020.98 1020.66 1020.34 1020.10 1019.78 1019.58 1019.42 1019.34 1019.38 1019.26 1019.18 1019.06 1018.86 1018.62 1018.46 1018.22 1018.10 1018.02 1017.86 1017.70 1017.66 1017.74 1017.66 1017.58 1017.50 1017.46 1017.26 1016.94 1016.82 1016.70 1016.54 1016.70 1016.50 1016.18 1016.30 1016.42 1016.46 1016.42 1016.50
1020.14 1020.22 1020.58 1020.78 1020.98 1020.94 1021.22 1021.42 1021.54 1021.74 1021.82 1021.78 1021.62 1021.50 1021.42 1021.38 1021.50 1021.62 1021.58 1021.50 1021.42 1021.46 1021.30 1021.02 1020.78 1020.58 1020.42 1020.14 1019.90 1019.58 1019.42 1019.26 1019.22 1019.22 1019.02 1018.90 1018.82 1018.66 1018.46 1018.30 1018.22 1018.02 1017.86 1017.82 1017.66 1017.70 1017.74 1017.70 1017.62 1017.50 1017.26 1016.94 1016.74 1016.66 1016.58 1016.50 1016.42 1016.02 1015.94 1016.06 1016.26 1016.46 1016.54
1020.38 1020.54 1020.62 1020.70 1020.86 1021.14 1021.42 1021.58 1021.74 1021.82 1021.86 1021.86 1021.78 1021.74 1021.70 1021.66 1021.78 1021.90 1021.86 1021.78 1021.70 1021.54 1021.18 1020.94 1020.78 1020.66 1020.46 1020.30 1020.10 1019.82 1019.50 1019.38 1019.10 1018.98 1018.94 1018.74 1018.58 1018.54 1018.38 1018.14 1018.02 1017.98 1017.90 1017.78 1017.82 1017.90 1017.94 1017.86 1017.78 1017.70 1017.50 1017.14 1016.86 1016.74 1016.62 1016.30 1016.18 1016.10 1015.90 1015.86 1015.94 1016.10 1016.18
1020.70 1020.82 1020.98 1021.10 1021.26 1021.34 1021.42 1021.62 1021.70 1021.78 1021.86 1021.86 1021.86 1021.90 1021.90 1021.82 1021.94 1021.98 1021.98 1021.94 1021.78 1021.50 1021.18 1020.94 1020.82 1020.70 1020.58 1020.38 1020.22 1020.02 1019.78 1019.34 1019.06 1018.90 1018.86 1018.74 1018.58 1018.58 1018.54 1018.30 1018.26 1018.18 1018.02 1018.02 1018.06 1018.10 1018.10 1017.98 1017.90 1017.82 1017.78 1017.54 1017.26 1016.98 1016.82 1016.66 1016.38 1016.22 1016.10 1015.94 1015.98 1016.06 1016.22
1020.82 1020.94 1021.06 1021.18 1021.26 1021.34 1021.34 1021.54 1021.62 1021.74 1021.70 1021.70 1021.66 1021.74 1021.90 1021.94 1022.02 1022.06 1022.14 1022.14 1021.82 1021.54 1021.30 1021.14 1020.90 1020.70 1020.54 1020.42 1020.30 1020.14 1019.86 1019.58 1019.22 1018.86 1018.70 1018.78 1018.78 1018.70 1018.70 1018.54 1018.42 1018.30 1018.26 1018.18 1018.26 1018.34 1018.34 1018.22 1018.06 1017.98 1017.94 1017.86 1017.58 1017.30 1017.06 1016.74 1016.54 1016.30 1016.18 1016.02 1015.90 1015.98 1016.06
1020.78 1021.02 1021.06 1021.18 1021.30 1021.30 1021.46 1021.66 1021.82 1021.78 1021.82 1021.82 1021.86 1021.90 1022.02 1022.10 1022.22 1022.34 1022.42 1022.22 1021.86 1021.70 1021.58 1021.38 1021.14 1020.90 1020.66 1020.50 1020.34 1020.18 1019.94 1019.66 1019.42 1019.14 1018.74 1018.70 1018.78 1018.86 1018.82 1018.70 1018.62 1018.62 1018.46 1018.38 1018.42 1018.50 1018.58 1018.54 1018.38 1018.34 1018.22 1017.94 1017.78 1017.46 1017.18 1017.02 1016.82 1016.50 1016.18 1016.02 1015.90 1015.82 1015.98
1020.94 1021.02 1021.14 1021.22 1021.42 1021.50 1021.66 1021.78 1021.86 1021.98 1022.02 1022.14 1022.22 1022.18 1022.18 1022.18 1022.22 1022.38 1022.38 1022.06 1021.86 1021.66 1021.58 1021.38 1021.22 1021.02 1020.86 1020.62 1020.38 1020.18 1019.98 1019.86 1019.54 1019.26 1018.90 1018.78 1018.66 1018.70 1018.66 1018.74 1018.70 1018.74 1018.66 1018.62 1018.66 1018.62 1018.66 1018.66 1018.58 1018.58 1018.54 1018.42 1018.14 1017.86 1017.50 1017.14 1016.98 1016.70 1016.34 1016.06 1016.06 1016.14 1016.22
1020.98 1021.10 1021.26 1021.54 1021.62 1021.66 1021.82 1021.94 1022.10 1022.22 1022.38 1022.66 1022.54 1022.46 1022.38 1022.30 1022.22 1022.22 1022.14 1022.02 1021.90 1021.74 1021.62 1021.46 1021.26 1021.10 1020.90 1020.74 1020.50 1020.18 1019.98 1019.90 1019.74 1019.38 1019.02 1018.82 1018.66 1018.66 1018.62 1018.54 1018.58 1018.62 1018.70 1018.70 1018.78 1018.78 1018.74 1018.66 1018.70 1018.70 1018.70 1018.62 1018.42 1018.10 1017.78 1017.46 1017.06 1016.82 1016.58 1016.38 1016.34 1016.30 1016.26
1021.14 1021.38 1021.50 1021.54 1021.70 1021.78 1021.94 1022.06 1022.30 1022.58 1022.70 1022.82 1022.78 1022.66 1022.54 1022.46 1022.38 1022.34 1022.30 1022.14 1022.02 1021.90 1021.78 1021.66 1021.42 1021.30 1021.10 1020.86 1020.58 1020.34 1020.10 1019.94 1019.62 1019.42 1019.30 1018.94 1018.82 1018.74 1018.62 1018.54 1018.58 1018.70 1018.82 1018.86 1018.78 1018.78 1018.74 1018.66 1018.66 1018.66 1018.58 1018.54 1018.30 1018.18 1017.94 1017.62 1017.26 1017.02 1016.86 1016.70 1016.74 1016.70 1016.66
1021.10 1021.34 1021.54 1021.66 1021.74 1021.78 1021.94 1022.22 1022.58 1022.78 1022.86 1022.98 1022.90 1022.78 1022.70 1022.66 1022.66 1022.62 1022.50 1022.38 1022.26 1022.18 1022.10 1021.94 1021.70 1021.42 1021.18 1020.90 1020.66 1020.42 1020.14 1019.98 1019.86 1019.70 1019.54 1019.34 1018.98 1018.66 1018.54 1018.58 1018.58 1018.66 1018.62 1018.38 1018.30 1018.42 1018.58 1018.58 1018.46 1018.30 1018.18 1018.18 1018.18 1018.22 1018.06 1017.66 1017.46 1017.02 1016.94 1017.30 1017.46 1017.26 1017.14
1021.34 1021.46 1021.54 1021.54 1021.62 1021.78 1022.14 1022.46 1022.70 1022.90 1023.02 1023.10 1022.98 1022.86 1022.86 1022.94 1022.94 1022.82 1022.66 1022.54 1022.46 1022.46 1022.42 1022.30 1022.02 1021.66 1021.42 1021.06 1020.78 1020.46 1020.18 1020.02 1019.90 1019.78 1019.66 1019.50 1019.30 1018.94 1018.54 1018.22 1018.22 1018.30 1018.42 1018.38 1018.02 1018.02 1018.18 1018.42 1018.38 1018.22 1018.22 1018.18 1017.94 1017.90 1017.98 1017.74 1017.14 1016.70 1016.98 1017.18 1017.18 1017.18 1017.34
1021.34 1021.50 1021.58 1021.62 1021.82 1022.18 1022.38 1022.70 1022.86 1022.98 1023.10 1023.14 1023.06 1023.02 1023.06 1023.10 1023.10 1022.98 1022.86 1022.74 1022.70 1022.70 1022.66 1022.54 1022.30 1022.02 1021.74 1021.34 1020.98 1020.58 1020.18 1019.94 1019.86 1019.74 1019.62 1019.46 1019.30 1019.10 1018.86 1018.58 1018.18 1018.02 1018.10 1018.18 1018.14 1018.10 1018.02 1017.94 1017.90 1017.82 1017.82 1018.10 1017.86 1017.38 1017.34 1017.22 1017.02 1016.98 1017.06 1017.06 1016.98 1016.90 1016.94
1021.02 1021.18 1021.38 1021.66 1022.06 1022.38 1022.62 1022.82 1022.94 1022.98 1023.06 1023.06 1023.10 1023.22 1023.22 1023.26 1023.30 1023.30 1023.14 1023.02 1022.94 1022.86 1022.82 1022.66 1022.54 1022.34 1022.02 1021.62 1021.14 1020.62 1020.18 1019.86 1019.66 1019.54 1019.50 1019.34 1019.18 1019.02 1018.90 1018.74 1018.74 1018.50 1018.18 1018.10 1018.06 1017.98 1017.90 1017.82 1017.74 1017.62 1017.50 1017.38 1017.66 1017.74 1017.22 1016.86 1016.94 1017.06 1016.98 1016.98 1016.94 1016.86 1016.86
Wind_Speed
4 5 7 9 9 10 2 10 11 11 13 13 13 14 14 13 12 12 11 11 12 9 8 8 9 7 7 7 6 5 5 4 3 6 6 6 6 6 6 6 6 6 6 6 5 5 5 4 4 4 3 3 4 4 4 3 3 3 2 2 3 3 4
5 6 7 7 7 8 12 6 4 9 10 12 12 13 13 13 12 12 12 12 13 12 10 10 9 8 8 8 6 5 6 5 5 5 5 5 5 6 6 6 7 7 6 6 5 5 4 5 5 5 4 4 4 4 4 4 4 3 3 3 4 4 3
7 7 6 7 6 1 7 7 3 3 5 9 11 12 13 13 14 14 13 12 12 11 9 10 9 9 9 8 7 7 7 5 5 6 6 6 6 7 6 6 6 7 6 6 5 6 5 5 5 5 5 5 5 4 4 4 3 3 3 3 3 5 3
6 8 8 5 5 4 2 2 3 4 5 5 6 7 13 16 15 14 14 15 14 12 12 11 11 10 9 9 8 8 8 7 6 6 6 6 7 6 6 5 6 5 6 7 7 7 6 6 6 6 6 6 5 4 4 4 4 3 3 3 3 3 3
9 7 7 6 4 2 0 3 3 3 4 5 7 6 5 10 13 13 13 14 15 16 15 14 11 10 8 8 7 7 8 8 6 5 6 5 6 5 6 6 6 6 7 6 6 7 7 7 7 7 7 6 5 5 5 4 4 4 3 3 4 3 3
9 9 7 5 5 6 5 3 1 1 3 5 6 7 7 6 6 11 11 12 12 12 11 10 12 11 10 9 7 6 5 6 5 5 6 6 6 7 7 7 6 6 6 8 6 6 7 7 8 8 8 6 6 6 5 5 5 4 4 4 4 4 4
9 8 7 7 5 8 7 5 5 5 7 4 5 6 6 8 6 5 6 8 8 10 8 7 4 7 8 8 7 6 7 7 6 6 6 6 6 7 7 6 6 6 6 5 6 6 6 7 8 8 8 8 7 7 6 6 6 5 4 5 5 5 4
9 8 8 8 7 7 6 7 8 8 6 3 5 7 7 5 8 7 6 7 9 10 11 12 9 6 6 6 8 9 8 7 6 6 5 6 6 6 6 7 7 7 6 6 6 6 7 8 7 8 9 8 8 7 7 7 6 6 5 6 5 5 4
9 9 8 10 9 7 6 8 9 7 7 6 6 6 7 5 5 6 5 3 2 7 7 6 5 4 6 7 6 6 6 7 7 6 7 8 7 7 7 7 6 6 7 7 6 5 6 7 7 7 8 8 8 8 7 7 7 6 6 6 6 6 5
10 10 9 9 9 7 7 6 7 9 6 5 3 4 6 6 6 7 9 9 7 1 5 5 5 4 3 5 4 2 3 5 5 8 8 8 8 8 8 7 6 6 7 8 7 7 6 6 7 7 7 8 7 7 7 7 7 7 7 7 7 7 7
9 9 9 8 8 9 10 9 9 8 7 6 5 5 5 6 6 8 8 9 8 0 4 2 3 5 3 3 5 5 3 1 2 3 8 8 6 8 8 7 8 6 8 7 8 8 7 6 6 7 7 8 8 7 7 7 7 7 7 7 6 7 7
8 10 10 10 10 10 11 9 7 8 9 8 8 7 6 5 4 4 5 6 7 7 3 1 2 4 5 3 3 2 2 1 2 6 4 4 6 8 6 6 7 7 7 8 8 7 8 8 6 7 9 8 8 8 8 7 7 8 8 8 7 7 7
10 10 10 10 10 9 8 9 8 6 9 9 10 9 8 7 7 8 9 9 8 6 4 3 4 2 5 4 5 4 4 4 2 3 4 4 6 7 4 3 4 8 9 8 9 8 8 8 8 7 8 9 8 9 8 8 7 8 8 8 8 8 8
13 12 11 10 10 10 10 9 9 9 9 10 9 8 8 8 9 8 7 8 7 6 5 4 3 6 3 1 3 3 3 3 2 1 3 4 2 2 6 1 2 1 3 5 8 10 10 9 9 9 8 8 8 9 8 8 8 8 8 8 8 8 8
12 12 11 10 9 9 8 9 9 9 9 8 8 9 8 8 8 7 7 7 7 6 4 4 6 6 3 1 2 2 2 1 3 4 2 2 4 2 2 8 6 3 2 2 5 7 8 9 11 10 10 9 9 9 8 8 9 8 8 9 9 8 8
13 12 11 11 10 9 7 7 8 10 12 11 10 8 8 8 7 7 7 7 7 7 7 5 2 1 1 1 3 4 4 3 3 4 4 5 5 6 3 6 9 6 5 3 2 4 5 4 6 9 11 11 11 10 9 9 8 10 15 13 10 9 9
12 11 11 10 9 9 9 9 9 11 12 10 9 9 9 8 7 8 7 6 6 7 6 6 6 6 7 7 6 4 2 2 4 4 4 3 3 4 7 7 9 7 4 2 2 3 1 4 4 5 7 10 11 11 10 9 9 15 16 17 17 11 9
11 11 10 8 8 8 9 9 9 9 10 9 9 10 8 8 7 7 7 6 6 4 5 6 6 6 6 6 5 5 4 3 2 2 2 3 3 4 6 7 7 5 3 3 3 3 3 3 5 5 5 5 7 10 10 10 13 16 16 17 18 15 10
11 11 9 7 7 7 7 7 7 7 7 7 9 9 9 7 6 6 6 6 4 6 7 7 6 5 5 4 3 3 3 3 3 3 2 1 1 1 5 5 4 4 3 3 3 3 4 5 4 4 4 5 6 8 9 9 14 16 18 18 18 18 14
11 10 8 6 5 5 5 5 5 6 7 6 6 8 9 9 9 7 6 6 6 6 4 3 3 4 3 2 3 3 3 4 4 4 4 3 1 2 1 1 1 1 1 1 1 2 4 4 5 4 3 3 5 5 6 8 11 15 17 18 19 18 14
11 10 8 6 5 5 5 4 6 7 8 7 7 6 7 8 7 6 6 6 7 6 5 5 4 4 3 3 3 3 3 4 4 5 6 6 3 2 0 0 1 1 2 1 2 3 4 5 4 4 3 4 3 3 5 7 12 14 17 17 18 18 14
10 10 9 6 6 5 6 6 6 8 8 7 8 7 7 7 6 7 6 4 5 5 5 5 5 6 5 6 6 5 4 3 3 3 4 5 5 3 3 2 2 2 2 1 2 3 4 5 4 4 4 3 3 4 5 5 8 11 15 17 17 17 10
9 9 9 6 7 7 6 7 7 7 8 8 7 7 6 5 6 7 7 6 4 4 4 4 5 6 6 6 6 6 5 4 5 4 3 4 5 5 3 3 3 2 2 2 3 3 3 4 4 3 3 3 3 5 5 5 2 1 6 12 15 11 8
8 6 7 9 9 9 8 7 8 8 9 8 7 6 5 5 5 6 6 6 5 5 5 5 5 4 4 5 5 5 5 4 3 3 3 3 2 3 3 2 2 2 2 2 3 4 4 4 5 4 3 3 4 5 6 4 3 4 2 6 12 12 10
9 9 9 10 10 10 8 7 8 8 8 8 8 5 5 5 5 6 6 5 5 5 7 6 5 4 3 4 3 4 4 5 5 5 6 5 5 3 2 3 3 3 2 2 3 4 4 4 4 5 4 4 5 7 7 3 2 9 10 9 8 8 6
10 10 9 9 9 8 7 7 9 9 8 8 5 5 6 5 6 6 6 6 6 7 6 6 6 6 5 6 4 3 3 3 4 4 4 5 6 4 4 4 4 5 4 4 3 4 4 4 4 6 5 4 5 6 4 3 4 6 10 10 9 11 6
9 9 10 9 8 8 8 7 7 7 6 5 5 5 5 5 6 6 5 6 7 7 6 5 5 6 6 7 6 4 3 4 4 4 5 4 5 2 3 4 5 5 5 5 5 4 4 4 4 5 6 6 5 6 4 3 6 7 9 8 10 10 9
10 10 8 8 10 8 7 6 6 6 6 5 6 5 4 5 5 4 4 6 7 6 5 6 6 6 6 6 7 5 4 3 5 3 5 5 6 4 6 5 5 6 6 5 4 4 4 4 5 5 5 6 6 5 6 6 8 7 8 8 8 11 12
9 9 8 8 7 5 6 5 5 6 4 4 4 4 4 4 5 4 4 6 5 5 5 6 6 5 5 5 7 7 7 5 5 5 3 5 6 5 6 6 5 5 5 6 6 6 6 6 6 5 5 5 5 6 6 6 5 5 6 8 7 6 9
9 8 7 6 6 5 6 6 5 6 5 5 4 4 3 4 4 4 4 6 6 6 6 6 6 5 5 5 5 6 7 8 7 6 5 4 5 6 5 6 4 3 3 4 5 5 6 5 6 6 5 6 5 5 5 6 6 6 7 8 9 7 7
8 8 7 7 7 6 6 6 6 6 6 5 6 6 6 6 7 7 7 6 5 7 7 7 7 6 5 5 5 6 6 7 8 7 6 4 4 5 5 5 4 4 3 4 5 5 5 5 5 6 7 7 7 7 6 6 6 6 8 10 11 12 9
7 6 6 6 5 5 5 5 5 5 4 6 7 6 6 6 7 7 5 5 6 6 6 6 6 6 6 6 6 6 6 6 8 8 8 5 4 4 3 3 4 5 4 4 3 3 3 4 4 5 5 6 7 7 8 8 5 6 6 5 7 8 12
6 7 7 6 5 5 5 5 3 2 4 5 5 5 6 6 7 6 7 8 8 8 8 8 6 6 6 7 7 7 6 6 6 7 7 4 4 3 3 5 5 6 6 5 5 4 2 3 3 4 5 5 6 6 7 8 7 6 5 5 5 6 7
7 5 5 6 5 5 4 3 3 4 5 4 4 5 6 6 6 7 8 8 8 8 8 8 8 8 7 7 6 6 6 6 10 10 7 6 4 4 6 5 4 5 6 6 6 7 6 4 3 5 5 5 6 6 6 7 7 6 6 7 7 8 7
7 7 7 6 5 5 4 4 6 5 4 4 3 4 5 5 6 7 7 7 7 8 8 9 10 9 8 8 6 7 5 5 4 5 6 7 6 4 2 1 3 4 4 5 4 5 6 7 6 5 4 3 5 6 7 7 7 6 5 7 5 6 7
6 7 5 5 5 4 5 6 6 5 4 3 3 4 4 4 5 5 6 6 5 7 8 9 8 8 8 8 7 7 6 5 5 5 6 6 7 8 5 3 2 2 2 5 8 11 10 3 4 7 7 7 6 3 4 7 9 12 14 11 10 9 6
8 6 5 4 5 6 7 6 5 5 4 2 2 3 4 3 4 5 6 6 6 8 8 7 7 7 8 8 8 9 8 6 5 5 5 6 6 7 5 4 6 8 7 5 8 7 9 9 9 10 8 3 6 8 9 11 13 11 7 9 10 10 10
8 7 5 4 7 7 7 6 5 5 3 2 3 4 3 3 4 4 5 5 6 7 7 7 7 7 7 8 8 9 8 7 6 5 6 6 6 7 5 4 5 6 8 9 6 8 9 8 10 11 13 13 7 4 8 10 5 5 10 10 11 11 12
Wind_Direction
112 78 51 29 20 352 201 178 169 167 170 172 173 169 167 168 168 168 171 173 175 168 178 176 177 176 182 185 188 188 193 178 193 182 190 179 177 176 176 184 182 190 190 192 199 194 200 193 191 204 198 206 215 220 215 203 207 211 197 203 203 204 219
100 94 78 66 56 349 337 328 196 171 168 175 175 169 169 168 167 170 173 176 177 173 176 179 177 181 182 183 187 187 198 187 193 189 185 181 178 178 179 181 184 189 191 197 193 202 192 199 187 200 204 205 217 210 214 204 198 197 193 198 188 203 202
82 86 87 82 95 113 326 323 349 87 152 176 175 170 172 170 172 173 171 175 177 174 173 179 183 181 182 180 182 192 195 191 190 188 181 186 185 183 185 180 187 188 196 191 190 197 197 197 194 198 199 201 210 196 200 194 194 192 193 182 182 187 191
105 97 94 108 136 148 239 285 332 45 65 119 151 174 178 174 176 174 173 174 174 173 175 181 182 182 182 182 186 189 192 197 189 188 182 186 186 187 181 191 192 192 191 197 195 195 197 191 196 199 200 194 199 196 194 192 189 187 185 179 188 183 190
109 108 106 113 113 139 311 15 3 52 96 106 110 101 151 183 177 175 177 177 174 177 179 178 181 182 183 184 189 192 193 191 192 190 180 182 187 185 189 193 199 199 201 200 197 195 190 191 194 194 197 191 193 193 196 195 194 190 188 188 200 207 209
100 91 83 76 77 70 60 76 34 16 61 72 78 90 96 129 178 184 182 179 182 180 173 172 177 177 184 188 188 191 191 192 190 190 184 181 181 189 197 201 197 205 206 208 201 202 192 189 189 190 190 192 192 192 195 193 201 189 193 194 204 207 211
101 92 74 64 70 81 95 101 80 22 4 21 67 64 84 110 116 151 166 164 156 146 139 140 153 180 185 179 188 182 192 197 192 196 191 189 187 188 197 206 205 204 209 204 209 202 198 192 189 187 189 189 192 193 195 197 199 196 187 193 206 209 206
77 84 82 79 70 73 78 65 80 87 102 80 64 84 87 94 113 122 143 159 156 157 164 163 158 148 165 174 183 187 189 195 196 195 197 197 198 198 197 204 208 209 209 209 214 200 201 199 196 191 189 189 193 194 196 198 200 201 189 197 205 216 207
69 69 81 83 63 55 53 76 84 83 93 109 112 111 109 102 104 109 100 78 123 149 152 142 120 130 155 157 165 169 179 191 190 195 200 205 205 210 210 203 207 208 208 214 215 205 202 200 200 198 194 193 192 195 196 196 200 201 197 202 202 209 215
66 64 65 74 72 54 48 63 94 96 81 72 67 72 70 74 71 68 66 42 3 233 146 134 141 130 133 137 141 136 138 168 197 195 200 209 211 215 217 215 206 203 209 210 210 210 209 201 197 196 199 199 195 194 197 198 200 201 202 204 204 209 212
63 69 65 66 78 76 59 46 60 71 73 61 57 65 79 89 96 104 118 135 150 47 324 129 140 138 146 152 151 150 143 131 138 202 210 209 218 220 218 221 217 210 212 206 210 211 206 206 197 192 197 203 202 201 199 200 201 204 206 207 205 207 214
74 70 66 62 56 62 72 67 43 60 74 66 47 42 54 69 83 88 88 84 76 100 282 305 168 154 152 146 135 144 145 99 81 77 41 312 242 218 219 223 221 221 219 212 211 211 210 204 202 196 200 205 206 206 208 204 204 206 208 207 207 208 212
87 78 70 64 57 55 64 71 64 50 58 59 55 49 49 48 65 76 80 79 78 96 109 320 297 210 159 147 141 141 148 153 161 134 113 85 14 321 239 212 242 225 221 216 214 209 208 210 209 209 202 206 205 206 206 205 205 207 209 209 208 207 209
91 88 81 74 70 68 65 62 60 56 55 56 61 55 50 51 49 60 72 82 97 110 110 108 8 347 352 76 125 131 135 141 139 253 150 144 127 340 323 308 134 216 229 219 226 214 206 207 210 214 212 210 209 210 204 201 202 204 206 205 204 204 209
88 82 79 76 75 75 74 74 70 59 55 56 58 61 60 61 60 46 49 58 62 82 104 133 138 151 160 144 122 131 152 144 134 136 134 167 148 143 340 322 302 254 238 197 201 223 225 212 205 207 213 216 213 213 209 204 205 201 201 203 206 203 206
92 82 72 66 63 61 57 61 71 68 56 47 49 50 55 61 64 69 58 41 46 37 25 22 62 123 175 145 148 147 144 165 175 170 174 153 152 140 130 287 284 264 248 231 221 198 195 214 224 216 210 212 214 213 211 213 212 210 203 200 200 204 209
96 89 78 70 63 51 49 54 61 71 69 55 53 53 49 48 61 62 56 41 50 52 38 31 46 53 56 41 26 39 73 151 165 164 155 154 184 133 142 202 240 240 214 275 316 308 267 182 195 220 230 221 214 212 213 215 218 215 208 207 206 203 206
99 92 82 71 59 54 52 54 59 66 77 70 59 64 67 70 70 78 76 59 36 51 60 65 50 37 39 41 27 23 21 19 48 113 141 159 181 179 180 192 202 211 196 192 245 255 274 227 200 197 203 217 231 227 220 218 217 213 212 212 213 211 210
104 98 92 80 68 59 52 54 59 64 60 67 65 62 67 78 86 90 91 81 55 46 49 57 70 59 39 31 32 17 13 16 23 28 43 84 170 218 205 197 176 178 189 212 233 259 238 241 229 213 205 199 203 222 230 232 224 214 212 213 214 215 215
106 102 93 82 75 66 53 49 48 52 56 57 57 62 64 61 67 69 74 74 65 54 48 49 42 65 57 11 23 16 12 18 22 18 5 359 18 55 42 143 176 225 266 290 323 303 287 279 266 267 253 225 209 215 224 227 234 221 217 215 214 215 212
113 109 103 96 77 61 57 60 61 56 51 48 48 46 52 55 57 64 66 71 68 56 54 39 34 31 28 23 19 24 10 15 24 26 9 351 356 33 60 265 257 249 244 244 280 292 286 285 284 266 269 291 287 247 223 224 224 219 221 220 217 217 208
121 117 113 113 100 71 64 70 75 71 67 56 52 41 37 42 39 48 46 42 59 56 45 40 35 27 19 18 12 15 9 6 11 17 32 353 341 358 16 8 352 318 310 292 272 271 271 272 257 267 278 265 257 268 267 264 246 226 216 217 220 219 212
120 118 120 115 88 71 69 74 70 71 72 63 52 45 34 29 35 40 37 31 29 39 31 34 33 24 13 13 6 5 358 4 14 2 7 9 344 332 350 359 351 344 318 305 293 284 277 274 272 269 264 266 258 249 252 249 292 75 218 221 224 216 221
104 102 97 93 80 71 66 65 67 59 66 66 56 40 28 25 34 43 39 32 26 28 11 8 22 12 12 8 360 357 0 356 356 352 351 340 345 310 317 343 340 333 313 311 303 299 290 286 289 281 258 258 261 257 263 248 138 58 42 200 212 207 216
98 90 85 83 85 79 68 66 71 70 61 56 51 33 36 32 35 40 37 32 30 35 27 3 342 342 357 340 338 347 354 356 355 350 344 344 342 331 357 3 346 315 304 284 275 280 286 289 286 284 274 265 264 265 263 267 169 184 211 216 199 187 212
104 96 87 83 78 83 80 64 58 52 51 50 40 32 33 30 34 32 30 24 23 29 18 2 348 334 339 330 318 333 351 358 360 350 349 340 334 332 357 354 346 336 320 311 289 290 291 291 286 291 292 286 276 279 276 245 252 237 217 208 209 197 189
98 97 92 87 81 75 69 62 66 64 56 43 36 32 31 36 40 35 29 26 23 9 350 339 338 350 342 344 322 324 341 352 350 346 341 345 332 320 346 350 343 331 328 318 320 317 314 319 315 306 301 298 294 289 298 246 253 260 253 229 205 202 191
91 79 78 81 83 80 73 69 63 59 53 45 44 39 37 42 42 38 34 26 11 345 336 343 348 345 350 348 343 316 328 340 336 345 342 341 342 344 347 348 347 341 341 339 347 5 8 359 355 345 332 319 311 306 300 282 267 274 271 258 229 194 199
99 98 91 81 73 77 87 73 60 58 57 48 51 49 49 55 47 33 36 20 347 331 335 344 342 345 344 345 350 344 331 324 341 336 347 346 345 342 342 340 352 352 9 29 26 20 11 1 360 359 356 349 344 344 340 335 323 301 301 302 293 257 210
101 97 92 91 95 86 75 66 53 46 34 26 25 32 46 65 49 34 30 4 333 336 341 340 334 335 339 346 342 340 340 333 327 328 335 349 347 341 340 334 341 351 25 40 32 18 1 353 350 348 347 342 329 329 331 332 330 315 310 309 305 291 257
110 108 102 95 88 77 69 66 54 41 26 11 12 17 26 35 39 33 21 351 352 358 353 341 335 332 332 336 336 339 336 333 333 320 317 336 350 345 345 346 354 4 358 25 26 19 2 344 345 342 336 332 329 324 325 327 326 323 317 302 286 286 291
99 101 99 95 85 82 81 70 59 50 22 16 20 30 29 33 35 27 356 347 355 351 349 344 345 341 335 330 333 331 330 335 329 325 309 331 338 343 346 9 14 10 356 13 10 7 349 334 337 335 331 324 321 323 320 319 317 322 329 345 5 12 12
127 127 122 109 109 96 84 83 72 48 41 40 16 25 24 24 19 11 360 359 352 352 346 342 338 337 338 331 325 322 328 333 323 315 312 330 338 344 357 4 11 5 359 356 349 338 320 322 326 325 320 314 317 315 317 315 320 330 337 7 357 345 349
128 111 111 120 115 110 100 101 88 66 72 51 21 27 23 17 9 4 1 356 352 353 352 349 344 337 324 320 319 316 318 320 326 333 322 323 324 342 350 356 9 12 353 342 336 332 322 315 313 307 302 307 309 315 315 316 317 324 340 354 354 336 339
130 129 129 120 129 118 131 113 91 96 85 67 36 40 25 11 4 5 2 353 352 1 359 351 344 337 329 319 314 310 311 312 308 318 323 313 303 299 283 292 357 344 328 310 310 314 318 314 306 289 278 287 306 319 318 314 316 314 11 5 357 330 328
126 128 137 147 146 130 99 98 114 108 96 71 48 35 27 21 10 0 355 353 2 6 360 350 340 338 334 327 317 307 306 311 315 316 317 318 306 308 314 321 331 246 281 302 313 327 336 352 292 305 320 321 295 276 276 296 297 309 339 345 346 340 323
131 137 148 157 107 91 107 108 100 97 88 78 46 39 41 38 17 7 356 1 5 3 352 346 341 335 329 328 324 313 304 304 306 302 304 305 307 297 274 280 314 319 320 305 310 319 328 343 331 325 319 275 300 307 295 282 286 304 341 344 336 328 330
148 154 155 121 116 117 107 105 99 103 114 103 66 57 62 40 21 7 7 9 2 356 346 339 336 330 323 318 311 309 302 294 296 302 301 305 304 291 266 290 314 320 319 322 327 321 325 329 328 322 317 313 298 288 312 310 303 350 339 329 330 333 333